Regional Weather Roundup
Issued by NWS Sterling, VA

Home | Current Version | Previous Version | Text Only | Print | Product List | Glossary On
Versions: 1 2 3 4 5 6 7 8 9 10 11 12 13 14 15 16 17 18 19 20 21 22 23 24 25 26 27 28 29 30 31 32 33 34 35 36 37 38 39 40 41 42 43 44 45 46 47 48 49 50
649
ASUS41 KLWX 200410
RWRLWX

REGIONAL WEATHER ROUNDUP
NATIONAL WEATHER SERVICE BALTIMORE MD/WASHINGTON DC
1100 PM EST MON FEB 19 2018

Note: "FAIR" indicates few or no clouds below 12,000 feet
with no significant weather and/or obstructions to visibility.
 TC=TEMPERATURE CELSIUS

 * =Non NWS site. Station does not report precipitation (e.g. rain,
    snow, etc.), thunder, or fog.

DCZ001-MDZ009-015-VAZ040>042-051-053>054-200500-
WASHINGTON METRO

CITY           SKY/WX    TMP DP  RH WIND       PRES   REMARKS
WASHINGTON NAT CLOUDY    50  48  93 S8        30.36R
DULLES         MOCLDY    47  46  97 S10       30.33S
ANDREWS AFB    CLOUDY    50  49  98 SW10      30.34S
FT BELVOIR     CLOUDY    49  47  94 CALM      30.36R
QUANTICO       CLOUDY    47  47 100 S9        30.38R
COLLEGE PARK*  CLOUDY    48  46  92 S5        30.35S
LEESBURG*      FAIR      45  45 100 S6        30.33F
MANASSAS*      FAIR      46  45  96 S5        30.35S
GAITHERSBURG*  CLOUDY    46  44  93 S3        30.34S FOG

$$

MDZ006>007-011-014-200500-
BALTIMORE METRO

CITY           SKY/WX    TMP DP  RH WIND       PRES   REMARKS
BWI AIRPORT    CLOUDY    44  44 100 S3        30.34S FOG
MD SCIENCE CTR   N/A     43  43 100 MISG      30.35S
MARTIN STATE   FOG       43  43 100 CALM      30.36F VSB 1/2
ANNAPOLIS      CLOUDY    48  48 100 S6        30.35S FOG
FORT MEADE*    CLOUDY    45  45 100 SW5       30.37S

$$

MDZ012-015-019>023-200500-
MARYLAND EASTERN SHORE

CITY           SKY/WX    TMP DP  RH WIND       PRES   REMARKS
OCEAN CITY     CLOUDY    50  50 100 S6        30.40S
SALISBURY      CLOUDY    57  56  96 SW7       30.39R
BAY BRIDGE AP* CLOUDY    50  50 100 S7        30.35S FOG
CAMBRIDGE*     FOG       50  50 100 SE6       30.37F VSB 1/4
EASTON*        CLOUDY    53  51  95 SW9       30.40S FOG

$$

MDZ017>025-200500-
SOUTHERN MARYLAND

CITY           SKY/WX    TMP DP  RH WIND       PRES   REMARKS
PATUXENT RIVER MOCLDY    52  52 100 S8        30.37S
ST INIGOES     MOCLDY    52  36  54 S6        30.37F
LEONARDTOWN*   CLOUDY    50  50 100 SW5       30.39S

$$

MDZ003>005-200500-
NORTH CENTRAL MARYLAND

CITY           SKY/WX    TMP DP  RH WIND       PRES   REMARKS
FREDERICK*     CLOUDY    46  46 100 S3        30.35F
HAGERSTOWN APT FAIR      42  39  89 NW3       30.29S
WESTMINSTER*   CLOUDY    46  46 100 S5        30.30F FOG

$$

MDZ501>502-200500-
WESTERN MARYLAND

CITY           SKY/WX    TMP DP  RH WIND       PRES   REMARKS
OAKLAND*       FAIR      54  50  87 SW10      30.27R
CUMBERLAND*    FAIR      45  39  81 CALM      30.32R

$$

VAZ025>031-200500-
SHENANDOAH VALLEY

CITY           SKY/WX    TMP DP  RH WIND       PRES   REMARKS
WINCHESTER*    FAIR      48  45  87 S3        30.30S
FRONT ROYAL*   FAIR      55  50  82 S6        30.28S
LURAY*         FAIR      54  50  87 SW9       30.30S
NEW MARKET*    FAIR      51  48  91 W8        30.30F
STAUNTON*      FAIR      46  45  95 S3        30.35S
WAYNESBORO*    FAIR      46  46  99 CALM      30.34S

$$

WVZ021-048>050-054>055-200500-
EASTERN WEST VIRGINIA PANHANDLE

CITY           SKY/WX    TMP DP  RH WIND       PRES   REMARKS
MARTINSBURG    CLOUDY    46  44  93 CALM      30.28S
PETERSBURG*    FAIR      47  46  93 CALM      30.28R

$$

VAZ036>039-050-200500-
CENTRAL FOOTHILLS

CITY           SKY/WX    TMP DP  RH WIND       PRES   REMARKS
CHARLOTTESVILL FAIR      50  46  86 SW7       30.35S
CULPEPER*      MOCLDY    48  46  90 S3        30.36S
ORANGE*        CLOUDY    46  45  93 CALM      30.36S
GORDONSVILLE*  CLOUDY    49  49 100 SW7       30.35S
WARRENTON*     FAIR      48  44  85 CALM      30.34S

$$

VAZ055>057-200500-
NORTH AND CENTRAL PIEDMONT

CITY           SKY/WX    TMP DP  RH WIND       PRES   REMARKS
FREDERICKSBRG* CLOUDY    51  51 100 SW7       30.36S
STAFFORD*      CLOUDY    51  51 100 S3        30.40S

$$

NCZ024-NYZ072-PAZ021-071-VAZ022-071-200500-
OTHER REGIONAL OBSERVATIONS

CITY           SKY/WX    TMP DP  RH WIND       PRES   REMARKS
NEW YORK CITY  CLOUDY    47  46  97 NW3       30.35F FOG
PHILADELPHIA   FOG       47  47 100 SW3       30.35S VSB 1/2
PITTSBURGH     MOCLDY    61  54  77 S3        30.14R
ROANOKE        CLOUDY    50  48  93 CALM      30.40R
RICHMOND       CLOUDY    50  49  96 S5        30.40R FOG
RALEIGH        FOG       50  50 100 CALM      30.44R VSB 1/4

$$

ANZ530>537-200500-
MARINE OBSERVATIONS

STATION/POSITION TIME  TEMP    WIND        PRES
                       AIR SEA DIR/SP/G
                 (UTC) (F)     (DEG/KT/KT) (MB)
THOMAS PT LIGHT  0400   44 38  190/ 14/ 15   N/A
BALT KEY BRIDGE  0342   44     120/  4/  4 1027.7F
COVE POINT       0342   45     190/ 12/ 12 1029.1R
LEWISETTA        0342   53 44  230/  8/  9 1028.9R
SOLOMONS ISLAND  0342   50 40  200/  5/  6 1028.1F

$$





USA.gov is the U.S. government's official web portal to all federal, state and local government web resources and services.